[[{"header":{"parameterUnit":"m.s-1","parameterCategory":2,"la1":30.2991,"la2":30.254,"lo1":-89.0895,"lo2":-89.0444,"dy":0.0017,"dx":0.0017,"nx":28,"ny":28,"refTime":"2024-05-24T03:00:00:Z","depth":"0","parameterNumber":2,"parameterNumberName":"U-component_of_CURRENTS"},"data":[0,0,0,0,0,0,0,0,0,0,0,0,0,0,0,0,0,0,0,0,0,0,0,0,0,0,0,0,0,0,0,0,0,0,0,0,0,0,0,0,0,0,0,0,0,0,0,0,0,0,0,0,0,0,0,0,0,0,0.3229,0.323,0,0.323,0.323,0.323,0.321,0.321,0.3209,0.3209,0.319,0.319,0.319,0,0,0,0,0,0,0,0,0,0,0,0,0,0.3227,0.3227,0.3229,0.323,0.323,0.323,0.323,0.323,0.321,0.321,0.3209,0.3209,0.319,0.319,0.319,0,0,0,0,0,0,0,0,0,0,0,0,0,0.3226,0.3227,0.3229,0.3221,0.3221,0.323,0.323,0.323,0.321,0.321,0.3209,0.3209,0.319,0.319,0.319,0.32,0,0,0.3189,0.3189,0,0,0,0,0,0,0,0,0.3226,0.3226,0.3222,0.3222,0.3221,0.3221,0.3222,0.3219,0.321,0.3213,0.3209,0.3208,0.32,0.3199,0.3198,0.3199,0.3198,0.3189,0.3189,0.3189,0.3189,0,0,0,0,0,0,0,0.3226,0.3226,0.3228,0.3223,0.3222,0.3223,0.3222,0.3222,0.3208,0.3212,0.3211,0.3214,0.3199,0.3199,0.3198,0.3198,0.3189,0.3189,0.3189,0.3189,0.3254,0.3256,0,0,0,0,0,0,0.3229,0.3226,0.3228,0.3228,0.3224,0.3224,0.3222,0.322,0.3208,0.3207,0.3215,0.3213,0.3199,0.3198,0.3197,0.3245,0.3189,0.3189,0.3189,0.3252,0.3255,0.3257,0,0,0,0,0,0,0.3229,0.3229,0.3228,0.3229,0.3229,0.3224,0.3222,0.3221,0.3227,0.3211,0.3208,0.3223,0.3199,0.3197,0.321,0.3242,0.3189,0.3188,0.325,0.3253,0.3256,0.3317,0,0,0,0,0,0,0.3229,0.3229,0.3231,0.3229,0.3229,0.3244,0.3223,0.3221,0.323,0.3228,0.3217,0.3214,0.3198,0.3211,0.321,0.3241,0.3188,0.3248,0.3251,0.3255,0.3313,0.3321,0.3329,0,0,0,0,0,0.3229,0.3232,0.3231,0.3231,0.323,0.3245,0.3246,0.3239,0.3231,0.3241,0.3235,0.3215,0.3233,0.3212,0.321,0.3242,0.3246,0.325,0.3255,0.3309,0.332,0.3329,0,0,0,0,0,0,0.3227,0.3231,0.3229,0.3231,0.3244,0.3243,0.3249,0.3249,0.3252,0.325,0.3231,0.3229,0.3258,0.3243,0.3221,0.3275,0.324,0.3244,0.3282,0.3292,0.33,0.3304,0.3188,0,0,0,0,0,0.323,0.3234,0.3242,0.3245,0.3253,0.3255,0.326,0.3261,0.3263,0.3263,0.3256,0.3257,0.3275,0.3276,0.3284,0.3304,0.3316,0.3328,0.3337,0.3344,0.3349,0.341,0.3425,0.3271,0.3271,0.327,0,0,0.3227,0.3232,0.3232,0.3246,0.3252,0.3269,0.3256,0.3272,0.329,0.3262,0.328,0.3287,0.329,0.3319,0.3331,0.3308,0.3394,0.3349,0.3355,0.3356,0.3416,0.3431,0.3445,0.3273,0.3273,0.3272,0,0,0.3228,0.3234,0.3239,0.3256,0.3275,0.3284,0.3294,0.3303,0.3312,0.3334,0.333,0.3358,0.3363,0.3381,0.339,0.345,0.3442,0.3453,0.349,0.3551,0.3564,0.3575,0.3608,0.3622,0.3451,0.3451,0.3451,0,0.3226,0.3231,0.3245,0.3262,0.3276,0.3294,0.331,0.3332,0.3345,0.3363,0.3348,0.3397,0.3398,0.3452,0.3473,0.347,0.3491,0.3448,0.3562,0.3573,0.3584,0.3615,0.363,0.3454,0.3454,0.3453,0.3453,0,0.3232,0.3243,0.3252,0.3278,0.3302,0.3319,0.3354,0.3381,0.3395,0.3414,0.3469,0.3479,0.3507,0.3521,0.3512,0.3594,0.358,0.357,0.3534,0.3603,0.3631,0.3645,0.3459,0.3458,0.3457,0.3456,0,0,0.3201,0.3244,0.3247,0.3265,0.331,0.333,0.338,0.3428,0.3468,0.3494,0.3549,0.3586,0.3597,0.3609,0.3614,0.3661,0.3756,0.3647,0.3648,0.3675,0.3877,0.3802,0.381,0.3768,0.3771,0.3773,0.3865,0,0.3197,0.3228,0.3253,0.329,0.331,0.3355,0.3403,0.3457,0.3501,0.3564,0.3606,0.3658,0.3631,0.3657,0.3703,0.3756,0.3797,0.3731,0.381,0.3812,0.3733,0.3826,0.3651,0.3712,0.3879,0.3881,0.3883,0,0.3181,0.3212,0.3239,0.3303,0.3317,0.3348,0.3433,0.3477,0.3578,0.3619,0.3682,0.3718,0.3803,0.3768,0.388,0.3841,0.3862,0.3888,0.3892,0.3809,0.3763,0.3671,0.3732,0.3643,0.3904,0.3903,0.3901,0,0.3142,0.3198,0.3219,0.3238,0.3316,0.3346,0.3395,0.3489,0.3539,0.3662,0.3725,0.3811,0.3877,0.3928,0.3976,0.3943,0.4095,0.4055,0.4001,0.3994,0.3853,0.383,0.3831,0.413,0.4129,0.4129,0.4129,0,0.3114,0.3131,0.3205,0.3215,0.3261,0.3329,0.339,0.3459,0.357,0.3649,0.3747,0.3829,0.3926,0.4014,0.4027,0.4067,0.4137,0.4028,0.4027,0.3868,0.3846,0.3766,0.3732,0.4133,0.4132,0.4131,0.4131,0,0.3049,0.3092,0.3121,0.3206,0.3233,0.3266,0.3369,0.342,0.3546,0.3661,0.3709,0.3875,0.3995,0.4067,0.4173,0.4135,0.4058,0.4162,0.3957,0.3928,0.3755,0.3729,0.3588,0.3495,0.4114,0.4113,0.4112,0,0.3011,0.3021,0.3096,0.3115,0.3146,0.3211,0.3256,0.3382,0.345,0.3676,0.3732,0.3903,0.3998,0.4128,0.4105,0.4126,0.402,0.3964,0.3861,0.3741,0.3714,0.3561,0.3483,0.3702,0.3698,0.3695,0.3692,0,0.2947,0.2972,0.2999,0.3042,0.3082,0.3128,0.3214,0.3268,0.3439,0.3546,0.3696,0.3797,0.3946,0.3902,0.395,0.3932,0.3761,0.3891,0.3831,0.345,0.322,0.313,0.3638,0.3661,0.3664,0.3666,0.3668,0.3669,0.2891,0.2893,0.2931,0.2956,0.2997,0.3033,0.304,0.315,0.3235,0.3369,0.3546,0.3622,0.3697,0.3732,0.3701,0.3543,0.3544,0.3416,0.3416,0.3287,0.3124,0.3553,0.3531,0.3534,0.3535,0.3537,0.3539,0,0.2815,0.2824,0.2848,0.2864,0.2854,0.2917,0.2991,0.2982,0.3027,0.3175,0.3261,0.3307,0.3277,0.3315,0.323,0.3098,0.2942,0.301,0.2767,0.2734,0.3179,0.3087,0.2889,0.2889,0.2889,0.2889,0.2889,0.2889,0.2776,0.2753,0.2758,0.2707,0.2716,0.2672,0.2683,0.2697,0.2765,0.2774,0.2787,0.2868,0.3019,0.2989,0.2851,0.2778,0.2589,0.2422,0.2472,0.2806,0.2843,0.2879,0.2785,0.2526,0.2526,0.1876,0.1871,0.1868]},{"header":{"parameterUnit":"m.s-1","parameterCategory":2,"la1":30.2991,"la2":30.254,"lo1":-89.0895,"lo2":-89.0444,"dy":0.0017,"dx":0.0017,"nx":28,"ny":28,"refTime":"2024-05-24T03:00:00:Z","depth":"0","parameterNumber":3,"parameterNumberName":"V-component_of_CURRENTS"},"data":[0,0,0,0,0,0,0,0,0,0,0,0,0,0,0,0,0,0,0,0,0,0,0,0,0,0,0,0,0,0,0,0,0,0,0,0,0,0,0,0,0,0,0,0,0,0,0,0,0,0,0,0,0,0,0,0,0,0,0.0363,0.0363,0,0.0332,0.0332,0.0331,0.0305,0.0305,0.0305,0.0305,0.0258,0.0257,0.0256,0,0,0,0,0,0,0,0,0,0,0,0,0,0.0358,0.0358,0.0363,0.0363,0.0363,0.0332,0.0332,0.0331,0.0305,0.0305,0.0305,0.0305,0.0259,0.0257,0.0256,0,0,0,0,0,0,0,0,0,0,0,0,0,0.0346,0.0358,0.0364,0.0347,0.0346,0.0332,0.0332,0.0331,0.0305,0.0305,0.0305,0.0305,0.0259,0.0257,0.0256,0.0251,0,0,0.0251,0.025,0,0,0,0,0,0,0,0,0.0346,0.0346,0.035,0.0348,0.0347,0.0324,0.0313,0.0304,0.0306,0.0319,0.0305,0.0305,0.028,0.0276,0.0269,0.0248,0.0246,0.0251,0.025,0.0249,0.0249,0,0,0,0,0,0,0,0.0347,0.0347,0.035,0.035,0.0348,0.0327,0.0325,0.0311,0.03,0.0318,0.0317,0.0315,0.0278,0.0271,0.0268,0.0246,0.0251,0.0249,0.0248,0.0248,0.0226,0.0227,0,0,0,0,0,0,0.0356,0.0348,0.0351,0.0349,0.0347,0.0327,0.0325,0.033,0.03,0.0296,0.0315,0.0314,0.0274,0.027,0.0266,0.0279,0.0249,0.0247,0.0247,0.0226,0.0226,0.0227,0,0,0,0,0,0,0.0356,0.0357,0.0352,0.0348,0.0346,0.0328,0.0333,0.033,0.0327,0.0299,0.0294,0.0317,0.0274,0.0269,0.0262,0.0277,0.0247,0.0245,0.0225,0.0226,0.0226,0.0292,0,0,0,0,0,0,0.0357,0.0358,0.0363,0.0349,0.0347,0.0355,0.0334,0.0329,0.0327,0.0325,0.0298,0.0293,0.0273,0.0265,0.0261,0.0274,0.0244,0.0225,0.0226,0.0226,0.0289,0.0295,0.03,0,0,0,0,0,0.0357,0.0369,0.0364,0.0364,0.0356,0.0355,0.0352,0.0337,0.0327,0.0332,0.0314,0.0295,0.0266,0.0264,0.0259,0.0272,0.0224,0.0225,0.0226,0.0287,0.0294,0.0299,0,0,0,0,0,0,0.0368,0.0367,0.0361,0.0372,0.0368,0.0352,0.0354,0.0343,0.0332,0.033,0.0301,0.0296,0.0292,0.0273,0.0271,0.0267,0.0241,0.0241,0.029,0.0296,0.0301,0.032,0.0243,0,0,0,0,0,0.0374,0.0385,0.0377,0.0387,0.0387,0.0372,0.0369,0.036,0.0349,0.0344,0.0324,0.0304,0.0291,0.0287,0.0268,0.0271,0.0245,0.0274,0.0279,0.0284,0.0295,0.0274,0.0279,0.023,0.023,0.023,0,0,0.038,0.0382,0.0387,0.039,0.0385,0.0398,0.037,0.0373,0.0385,0.034,0.0347,0.0319,0.0293,0.0293,0.0291,0.0282,0.0281,0.0285,0.0289,0.0298,0.0276,0.028,0.0285,0.023,0.023,0.023,0,0,0.0407,0.0402,0.0423,0.0423,0.0423,0.0418,0.0423,0.041,0.0407,0.0407,0.0378,0.0363,0.0341,0.0329,0.032,0.0343,0.0304,0.0333,0.0382,0.0361,0.0365,0.0368,0.0331,0.0331,0.0342,0.0342,0.0342,0,0.0415,0.044,0.0428,0.0447,0.0456,0.0432,0.0459,0.0452,0.0439,0.0444,0.0418,0.0388,0.0361,0.037,0.0375,0.0356,0.0331,0.0363,0.0369,0.0372,0.0374,0.0335,0.0334,0.0345,0.0345,0.0344,0.0344,0,0.0456,0.0475,0.0488,0.0509,0.0516,0.0532,0.0528,0.0533,0.052,0.051,0.0506,0.0463,0.0449,0.0434,0.0411,0.0419,0.0391,0.0373,0.0357,0.0383,0.034,0.0337,0.035,0.0349,0.0348,0.0347,0,0,0.0484,0.0513,0.0519,0.0545,0.0552,0.057,0.0591,0.061,0.0635,0.0599,0.0625,0.0581,0.0549,0.0536,0.05,0.0481,0.0465,0.0441,0.0438,0.0411,0.0408,0.0399,0.0395,0.045,0.045,0.045,0.0367,0,0.0524,0.0579,0.058,0.0638,0.0669,0.066,0.0688,0.0699,0.0694,0.0709,0.0662,0.0665,0.0592,0.0591,0.0556,0.0499,0.0463,0.0488,0.0381,0.0378,0.0373,0.0394,0.0427,0.0358,0.0364,0.0364,0.0363,0,0.057,0.0604,0.0668,0.072,0.0734,0.0762,0.0813,0.0836,0.0843,0.0836,0.0815,0.0777,0.0747,0.068,0.0577,0.0597,0.0505,0.0446,0.0441,0.0413,0.0366,0.0334,0.0352,0.0251,0.0359,0.0359,0.036,0,0.0615,0.067,0.0729,0.0744,0.0792,0.0825,0.0855,0.0877,0.092,0.0925,0.0954,0.0884,0.0878,0.0756,0.0623,0.0602,0.0507,0.0461,0.0357,0.0354,0.0352,0.035,0.027,0.0377,0.0377,0.0377,0.0378,0,0.0664,0.0711,0.0758,0.0791,0.0873,0.0885,0.097,0.0985,0.1027,0.1106,0.1027,0.1069,0.09,0.0825,0.0667,0.0516,0.0533,0.0373,0.0341,0.0374,0.0374,0.0262,0.0182,0.0374,0.0375,0.0376,0.0376,0,0.0705,0.0731,0.0806,0.087,0.0899,0.0961,0.1056,0.1116,0.1143,0.1247,0.1261,0.1219,0.1129,0.0941,0.0761,0.06,0.0375,0.0374,0.0417,0.0393,0.0197,0.012,-0.0016,-0.0068,0.0244,0.0243,0.0243,0,0.073,0.0773,0.0868,0.0924,0.0958,0.1048,0.1119,0.1171,0.125,0.1354,0.1417,0.1367,0.136,0.1075,0.0791,0.0513,0.0371,0.0341,0.0304,0.0202,0.0092,0.0038,-0.0,0.0312,0.0312,0.0312,0.0312,0,0.0778,0.0812,0.0875,0.0992,0.1078,0.1182,0.1291,0.1377,0.1472,0.1575,0.1694,0.1704,0.1448,0.1208,0.0822,0.0611,0.0279,0.0334,0.0225,0.0141,0.0081,0.0013,0.0334,0.0313,0.0313,0.0313,0.0313,0.0313,0.0815,0.0868,0.0956,0.1068,0.117,0.1313,0.1424,0.1563,0.1732,0.191,0.1893,0.1947,0.1594,0.1085,0.0793,0.0309,0.0277,0.0161,0.0073,0.0026,-0.001,0.031,0.0261,0.0261,0.026,0.026,0.026,0,0.0858,0.0924,0.1027,0.1165,0.1282,0.1335,0.1537,0.1675,0.1907,0.2053,0.2157,0.2029,0.1587,0.1113,0.046,0.0126,-0.0002,-0.0061,-0.0125,-0.0156,0.0133,0.0155,0.0088,0.0088,0.0088,0.0088,0.0088,0.0088,0.0884,0.0983,0.1038,0.1233,0.1335,0.1521,0.165,0.1884,0.2045,0.2249,0.2296,0.2286,0.1967,0.0811,0.0084,-0.0102,-0.0316,-0.0379,-0.0492,-0.0287,-0.0272,-0.0258,-0.0254,-0.0405,-0.0406,-0.0711,-0.0715,-0.0717]}],[{"header":{"parameterUnit":"m.s-1","parameterCategory":2,"la1":30.2991,"la2":30.254,"lo1":-89.0895,"lo2":-89.0444,"dy":0.0017,"dx":0.0017,"nx":28,"ny":28,"refTime":"2024-05-24T03:00:00:Z","depth":"2","parameterNumber":2,"parameterNumberName":"U-component_of_CURRENTS"},"data":[0,0,0,0,0,0,0,0,0,0,0,0,0,0,0,0,0,0,0,0,0,0,0,0,0,0,0,0,0,0,0,0,0,0,0,0,0,0,0,0,0,0,0,0,0,0,0,0,0,0,0,0,0,0,0,0,0,0,0.2875,0.2875,0,0.2874,0.2874,0.2874,0.2868,0.2868,0.2868,0.2868,0.2861,0.2861,0.2861,0,0,0,0,0,0,0,0,0,0,0,0,0,0.2877,0.2876,0.2875,0.2875,0.2875,0.2874,0.2874,0.2874,0.2868,0.2868,0.2868,0.2868,0.2861,0.2861,0.2861,0,0,0,0,0,0,0,0,0,0,0,0,0,0.2874,0.2876,0.2875,0.2873,0.2873,0.2875,0.2874,0.2874,0.2868,0.2868,0.2868,0.2868,0.2861,0.2861,0.2861,0.2859,0,0,0.286,0.286,0,0,0,0,0,0,0,0,0.2874,0.2874,0.2873,0.2873,0.2873,0.2873,0.2873,0.2869,0.2868,0.2868,0.2868,0.2868,0.2865,0.2865,0.2862,0.2859,0.2859,0.286,0.286,0.286,0.2859,0,0,0,0,0,0,0,0.2875,0.2874,0.2873,0.2873,0.2873,0.2875,0.2874,0.2872,0.2865,0.2868,0.2868,0.287,0.2865,0.2863,0.2862,0.2859,0.286,0.286,0.2859,0.2859,0.2919,0.2921,0,0,0,0,0,0,0.2878,0.2874,0.2873,0.2873,0.2876,0.2875,0.2874,0.2871,0.2865,0.2865,0.2871,0.287,0.2863,0.2863,0.2862,0.2913,0.286,0.2859,0.2859,0.2917,0.2919,0.2921,0,0,0,0,0,0,0.2878,0.2877,0.2873,0.2875,0.2875,0.2875,0.2872,0.2871,0.2884,0.2868,0.2867,0.2885,0.2863,0.2862,0.2879,0.2911,0.2859,0.2859,0.2915,0.2918,0.292,0.2981,0,0,0,0,0,0,0.2878,0.2877,0.2881,0.2875,0.2875,0.2888,0.2872,0.2871,0.2885,0.2885,0.288,0.2879,0.2863,0.2879,0.2878,0.2909,0.2859,0.2913,0.2916,0.2919,0.2977,0.2985,0.2993,0,0,0,0,0,0.2877,0.2881,0.2881,0.2882,0.2879,0.2889,0.2889,0.2887,0.2887,0.2898,0.2897,0.288,0.29,0.288,0.2879,0.291,0.2911,0.2915,0.2919,0.2973,0.2984,0.2992,0,0,0,0,0,0,0.2882,0.2881,0.2881,0.2883,0.2894,0.2889,0.2898,0.29,0.2907,0.291,0.2894,0.2893,0.2924,0.291,0.2889,0.294,0.2906,0.291,0.2948,0.2957,0.2965,0.2971,0.2859,0,0,0,0,0,0.2886,0.2889,0.2892,0.2897,0.2903,0.2905,0.2911,0.2914,0.2918,0.2921,0.2918,0.2922,0.2937,0.2941,0.2947,0.2967,0.2976,0.299,0.2998,0.3005,0.3011,0.3064,0.3078,0.2934,0.2934,0.2934,0,0,0.2886,0.2889,0.2889,0.2899,0.2904,0.2918,0.2909,0.2926,0.2943,0.2919,0.2943,0.295,0.2951,0.2979,0.2991,0.297,0.3051,0.301,0.3015,0.3018,0.307,0.3084,0.3096,0.2937,0.2936,0.2936,0,0,0.289,0.2896,0.29,0.2914,0.2931,0.2937,0.2949,0.2957,0.297,0.2993,0.2991,0.3019,0.3025,0.304,0.3046,0.3103,0.3095,0.3107,0.3146,0.3198,0.3211,0.3221,0.3252,0.3265,0.3106,0.3106,0.3106,0,0.2894,0.2895,0.2906,0.2919,0.2932,0.295,0.2964,0.2984,0.2999,0.3018,0.301,0.3056,0.3057,0.3104,0.3126,0.3121,0.3141,0.3107,0.3209,0.322,0.323,0.3258,0.3272,0.311,0.3109,0.3109,0.3109,0,0.2897,0.2906,0.2914,0.2935,0.2956,0.2973,0.3003,0.3031,0.305,0.3069,0.3123,0.3132,0.3161,0.3173,0.3165,0.3241,0.3229,0.3216,0.3183,0.3248,0.3274,0.3287,0.3114,0.3113,0.3112,0.3111,0,0,0.2877,0.2908,0.2911,0.2925,0.2966,0.2982,0.3029,0.3072,0.3112,0.3141,0.3194,0.323,0.3246,0.3256,0.3262,0.3304,0.3394,0.3293,0.3295,0.332,0.3503,0.3427,0.3433,0.3403,0.3405,0.3407,0.3493,0,0.2874,0.2897,0.2916,0.2947,0.2963,0.3004,0.3048,0.3099,0.3143,0.3203,0.3244,0.3297,0.3276,0.3305,0.3347,0.3392,0.3432,0.3372,0.3439,0.3441,0.3362,0.3447,0.3152,0.3197,0.3505,0.3507,0.3509,0,0.2861,0.2884,0.2906,0.2958,0.297,0.2999,0.3077,0.3119,0.3214,0.3256,0.3318,0.3355,0.3436,0.3408,0.351,0.3475,0.3496,0.3517,0.3521,0.3436,0.3389,0.3183,0.3209,0.353,0.3529,0.3527,0.3526,0,0.283,0.2874,0.2891,0.2906,0.2971,0.3,0.3046,0.3134,0.3182,0.33,0.3359,0.3442,0.3507,0.3554,0.36,0.357,0.3706,0.3666,0.361,0.3603,0.3358,0.3325,0.3735,0.3735,0.3734,0.3734,0.3734,0,0.2805,0.2819,0.288,0.2888,0.2929,0.299,0.3049,0.3112,0.3217,0.3288,0.3385,0.3457,0.3552,0.3632,0.3647,0.3678,0.3746,0.3636,0.3632,0.337,0.3339,0.3626,0.3612,0.3737,0.3737,0.3736,0.3735,0,0.2752,0.2787,0.2809,0.2881,0.2906,0.2938,0.3034,0.3079,0.3201,0.3302,0.335,0.3501,0.361,0.3681,0.3777,0.3738,0.3773,0.3758,0.3438,0.3394,0.3618,0.3606,0.3705,0.3703,0.3702,0.3701,0.37,0,0.272,0.2726,0.2788,0.2802,0.2829,0.2892,0.2931,0.305,0.3106,0.3312,0.3354,0.3517,0.3588,0.3706,0.3683,0.3701,0.3769,0.3426,0.3308,0.3635,0.3621,0.3612,0.3603,0.3005,0.2999,0.2993,0.2989,0,0.2663,0.2684,0.2703,0.2737,0.277,0.2807,0.2882,0.2923,0.3076,0.3167,0.3294,0.3375,0.3508,0.3396,0.344,0.3404,0.3399,0.3315,0.3761,0.3061,0.2983,0.2967,0.2979,0.294,0.2945,0.2949,0.2951,0.2953,0.2615,0.2612,0.264,0.2656,0.2689,0.2706,0.27,0.2786,0.2848,0.2951,0.3122,0.3146,0.3188,0.3102,0.301,0.2938,0.3169,0.3006,0.3019,0.3039,0.2946,0.2869,0.2787,0.2791,0.2794,0.2797,0.28,0,0.2543,0.2547,0.256,0.2561,0.2539,0.2604,0.2642,0.2604,0.2612,0.2744,0.2817,0.2622,0.2557,0.2599,0.2412,0.2408,0.2353,0.2305,0.2196,0.2247,0.2293,0.2157,0.1791,0.1788,0.1785,0.1782,0,0,0.2507,0.2475,0.2471,0.2402,0.2407,0.2343,0.2335,0.2295,0.233,0.2303,0.2295,0.2498,0.2557,0.216,0.2096,0.1908,0.2064,0.1834,0.265,0.2577,0.2618,0.2712,0.2565,0,0,0,0,0]},{"header":{"parameterUnit":"m.s-1","parameterCategory":2,"la1":30.2991,"la2":30.254,"lo1":-89.0895,"lo2":-89.0444,"dy":0.0017,"dx":0.0017,"nx":28,"ny":28,"refTime":"2024-05-24T03:00:00:Z","depth":"2","parameterNumber":3,"parameterNumberName":"V-component_of_CURRENTS"},"data":[0,0,0,0,0,0,0,0,0,0,0,0,0,0,0,0,0,0,0,0,0,0,0,0,0,0,0,0,0,0,0,0,0,0,0,0,0,0,0,0,0,0,0,0,0,0,0,0,0,0,0,0,0,0,0,0,0,0,0.0209,0.0208,0,0.0178,0.0177,0.0177,0.0155,0.0155,0.0155,0.0155,0.0112,0.0111,0.011,0,0,0,0,0,0,0,0,0,0,0,0,0,0.0208,0.0208,0.0209,0.0208,0.0208,0.0178,0.0177,0.0177,0.0155,0.0155,0.0155,0.0155,0.0113,0.0111,0.011,0,0,0,0,0,0,0,0,0,0,0,0,0,0.0195,0.0208,0.0209,0.0194,0.0193,0.0178,0.0177,0.0177,0.0155,0.0155,0.0155,0.0155,0.0113,0.0112,0.011,0.0102,0,0,0.0105,0.0104,0,0,0,0,0,0,0,0,0.0196,0.0195,0.0197,0.0195,0.0194,0.0171,0.0161,0.0151,0.0155,0.0169,0.0155,0.0155,0.0132,0.0129,0.0122,0.01,0.0098,0.0105,0.0104,0.0103,0.0103,0,0,0,0,0,0,0,0.0197,0.0196,0.0195,0.0197,0.0195,0.0175,0.0174,0.0159,0.015,0.0167,0.0166,0.0164,0.0131,0.0123,0.0121,0.0098,0.0105,0.0104,0.0103,0.0102,0.008,0.0081,0,0,0,0,0,0,0.0205,0.0197,0.0196,0.0194,0.0196,0.0176,0.0174,0.0178,0.015,0.0147,0.0164,0.0163,0.0126,0.0122,0.0119,0.0131,0.0103,0.0102,0.0101,0.008,0.008,0.0081,0,0,0,0,0,0,0.0205,0.0205,0.0198,0.0195,0.0193,0.0176,0.018,0.0177,0.0176,0.0148,0.0144,0.0167,0.0126,0.0121,0.0116,0.0128,0.0101,0.01,0.0079,0.008,0.0081,0.0141,0,0,0,0,0,0,0.0205,0.0206,0.0211,0.0196,0.0194,0.0199,0.0181,0.0177,0.0175,0.0173,0.0149,0.0145,0.0125,0.0118,0.0114,0.0126,0.0098,0.0079,0.008,0.008,0.0138,0.0143,0.0147,0,0,0,0,0,0.0205,0.0216,0.0212,0.0212,0.0202,0.02,0.0197,0.0183,0.0175,0.018,0.0164,0.0146,0.012,0.0118,0.0113,0.0124,0.0079,0.008,0.008,0.0136,0.0142,0.0147,0,0,0,0,0,0,0.0218,0.0214,0.0209,0.0218,0.0214,0.0197,0.02,0.019,0.018,0.018,0.0152,0.0147,0.0144,0.0126,0.0124,0.0119,0.0096,0.0095,0.014,0.0145,0.015,0.0169,0.0097,0,0,0,0,0,0.0224,0.0233,0.0224,0.0232,0.0232,0.0217,0.0214,0.0207,0.0196,0.0192,0.0174,0.0156,0.0142,0.0139,0.012,0.0122,0.0099,0.0124,0.0129,0.0133,0.0145,0.0122,0.0126,0.0084,0.0084,0.0084,0,0,0.0231,0.0231,0.0235,0.0236,0.0231,0.0241,0.0216,0.0218,0.0229,0.0188,0.0195,0.0169,0.0145,0.0144,0.0141,0.0133,0.0131,0.0134,0.0138,0.0148,0.0124,0.0128,0.0132,0.0084,0.0084,0.0084,0,0,0.0256,0.0251,0.0269,0.0268,0.0267,0.0261,0.0266,0.0254,0.0251,0.0251,0.0224,0.0211,0.0189,0.0177,0.0168,0.0188,0.0153,0.0179,0.0224,0.0202,0.0206,0.0209,0.0177,0.0177,0.0187,0.0187,0.0187,0,0.0265,0.0287,0.0273,0.029,0.0298,0.0276,0.0299,0.0293,0.028,0.0285,0.0262,0.0233,0.0207,0.0214,0.0219,0.02,0.0178,0.0207,0.0209,0.0212,0.0214,0.0181,0.018,0.019,0.0189,0.0189,0.0189,0,0.0302,0.0319,0.033,0.0348,0.0354,0.0368,0.0362,0.0367,0.0356,0.0346,0.0342,0.0302,0.0289,0.0273,0.0252,0.0258,0.0233,0.0214,0.0198,0.0222,0.0185,0.0183,0.0194,0.0193,0.0192,0.0191,0,0,0.0331,0.0353,0.0359,0.0383,0.0387,0.0403,0.0421,0.0437,0.046,0.0426,0.045,0.0408,0.0381,0.0368,0.0334,0.0314,0.0298,0.0277,0.0274,0.0252,0.0244,0.023,0.0225,0.028,0.028,0.028,0.0211,0,0.0368,0.0417,0.0416,0.0468,0.0496,0.0486,0.0511,0.0519,0.0514,0.0528,0.0482,0.0485,0.0419,0.042,0.0385,0.0329,0.0297,0.0319,0.022,0.0217,0.0206,0.0224,0.024,0.018,0.0208,0.0208,0.0207,0,0.0411,0.044,0.0498,0.0544,0.0556,0.0582,0.0627,0.0649,0.0652,0.0645,0.0626,0.059,0.056,0.05,0.0402,0.042,0.0337,0.0281,0.0276,0.0244,0.0199,0.0161,0.0174,0.0203,0.0203,0.0204,0.0204,0,0.0455,0.0503,0.0557,0.0569,0.0611,0.0641,0.0669,0.0687,0.0727,0.073,0.0753,0.0688,0.068,0.0569,0.0442,0.0426,0.033,0.029,0.0193,0.019,0.0176,0.0172,0.0214,0.0214,0.0215,0.0215,0.0215,0,0.05,0.0544,0.0584,0.0614,0.069,0.0699,0.0778,0.0791,0.0828,0.0898,0.0824,0.0856,0.0699,0.0625,0.0482,0.0339,0.0354,0.0208,0.0178,0.0195,0.0194,0.0194,0.0192,0.0212,0.0213,0.0213,0.0214,0,0.0541,0.0563,0.0632,0.0687,0.0715,0.0773,0.086,0.0916,0.0938,0.1029,0.1042,0.0991,0.09,0.0727,0.0558,0.0411,0.0263,0.0202,0.023,0.0205,0.0121,0.0124,0.0086,0.0086,0.0085,0.0084,0.0084,0,0.0565,0.0605,0.0691,0.0743,0.0773,0.0858,0.0923,0.097,0.104,0.1123,0.1175,0.112,0.1097,0.0827,0.057,0.032,0.0274,0.0151,0.0118,0.0137,0.0111,0.0115,0.0118,0.0112,0.0112,0.0112,0.0111,0,0.0613,0.0644,0.0701,0.0808,0.0888,0.0985,0.1083,0.1158,0.124,0.1321,0.141,0.1404,0.1163,0.0921,0.057,0.0388,0.0191,0.0138,0.016,0.0149,0.0158,0.0133,0.0136,0.0109,0.011,0.011,0.011,0.011,0.065,0.0698,0.0778,0.0882,0.0977,0.1104,0.1201,0.1316,0.1457,0.159,0.1575,0.1568,0.1281,0.0842,0.053,0.0189,0.0207,0.0066,0.0068,0.007,0.0093,0.0101,0.0045,0.0045,0.0045,0.0044,0.0044,0,0.0694,0.0751,0.0846,0.0971,0.1078,0.1131,0.1304,0.1406,0.1587,0.1694,0.1768,0.1503,0.1226,0.0883,0.0396,0.0106,0.0072,-0.0009,0.0017,0.0022,0.0025,0.0046,-0.0016,-0.0017,-0.0018,-0.0018,0,0,0.0718,0.0807,0.0855,0.1032,0.1128,0.1291,0.14,0.156,0.1673,0.1782,0.1783,0.1742,0.1336,0.0969,0.057,0.0283,0.0214,0.0212,0.0292,0.0376,0.0383,0.01,0.0141,0,0,0,0,0]}],[{"header":{"parameterUnit":"m.s-1","parameterCategory":2,"la1":30.2991,"la2":30.254,"lo1":-89.0895,"lo2":-89.0444,"dy":0.0017,"dx":0.0017,"nx":28,"ny":28,"refTime":"2024-05-24T03:00:00:Z","depth":"4","parameterNumber":2,"parameterNumberName":"U-component_of_CURRENTS"},"data":[0,0,0,0,0,0,0,0,0,0,0,0,0,0,0,0,0,0,0,0,0,0,0,0,0,0,0,0,0,0,0,0,0,0,0,0,0,0,0,0,0,0,0,0,0,0,0,0,0,0,0,0,0,0,0,0,0,0,0.1868,0.1869,0,0.1909,0.1909,0.1909,0.1962,0.1963,0.1964,0.1965,0.2028,0.2028,0.2029,0,0,0,0,0,0,0,0,0,0,0,0,0,0.1825,0.1825,0.1868,0.1869,0.1869,0.1909,0.1909,0.1909,0.1962,0.1963,0.1964,0.1965,0.2027,0.2028,0.2029,0,0,0,0,0,0,0,0,0,0,0,0,0,0.1851,0.1826,0.1868,0.1901,0.1905,0.1909,0.1909,0.191,0.1961,0.1963,0.1964,0.1966,0.2027,0.2028,0.2029,0.2006,0,0,0.2033,0.2033,0,0,0,0,0,0,0,0,0.1849,0.1852,0.1896,0.1899,0.1903,0.1933,0.1917,0.1944,0.1961,0.1938,0.1965,0.1966,0.1998,0.2002,0.2003,0.2009,0.2012,0.2033,0.2034,0.2034,0.2034,0,0,0,0,0,0,0,0.1847,0.1851,0.1882,0.1896,0.1901,0.1911,0.1916,0.1922,0.1958,0.194,0.1944,0.1951,0.2,0.2002,0.2005,0.2012,0.2033,0.2034,0.2034,0.2035,0.2129,0.2131,0,0,0,0,0,0,0.1845,0.1849,0.1881,0.1884,0.1881,0.1911,0.1916,0.1921,0.1958,0.1965,0.195,0.1954,0.1999,0.2004,0.2008,0.2094,0.2034,0.2035,0.2036,0.2127,0.2129,0.2131,0,0,0,0,0,0,0.1844,0.1847,0.188,0.1869,0.1874,0.191,0.1914,0.1921,0.1966,0.1965,0.1973,0.1994,0.2001,0.2006,0.2053,0.2092,0.2036,0.2037,0.2125,0.2128,0.213,0.2194,0,0,0,0,0,0,0.1842,0.1846,0.1869,0.1869,0.1875,0.191,0.1913,0.192,0.1966,0.1973,0.2005,0.201,0.2002,0.2051,0.2054,0.2093,0.2037,0.2123,0.2126,0.2129,0.2189,0.2198,0.2206,0,0,0,0,0,0.184,0.1856,0.1869,0.1874,0.1897,0.1911,0.1916,0.1944,0.1968,0.1991,0.2019,0.2011,0.2075,0.2054,0.2056,0.2096,0.2121,0.2125,0.2129,0.2186,0.2197,0.2206,0,0,0,0,0,0,0.1851,0.1863,0.1877,0.1898,0.1919,0.1921,0.1951,0.1968,0.2007,0.2028,0.2029,0.2035,0.2093,0.2086,0.2062,0.2135,0.2099,0.2104,0.2141,0.2152,0.216,0.2164,0.2038,0,0,0,0,0,0.1862,0.1881,0.1891,0.1915,0.1928,0.1948,0.1967,0.1986,0.2009,0.2031,0.2052,0.2079,0.2102,0.2123,0.2138,0.2173,0.2179,0.2204,0.2212,0.2219,0.2226,0.2273,0.2287,0.2145,0.2145,0.2145,0,0,0.1873,0.1884,0.1897,0.192,0.194,0.1959,0.1965,0.2004,0.2033,0.2029,0.2092,0.2111,0.212,0.2163,0.2188,0.2169,0.2264,0.2224,0.223,0.2233,0.2279,0.2293,0.2305,0.2148,0.2147,0.2147,0,0,0.1888,0.1917,0.1934,0.1953,0.199,0.1999,0.2021,0.2049,0.2083,0.213,0.2142,0.2189,0.2221,0.2237,0.2246,0.231,0.2307,0.2323,0.2368,0.2414,0.2426,0.2437,0.2464,0.2476,0.2326,0.2326,0.2326,0,0.1908,0.1921,0.1944,0.1963,0.1986,0.2022,0.2045,0.2077,0.2122,0.2154,0.2165,0.224,0.2253,0.2302,0.233,0.2329,0.2351,0.2326,0.2425,0.2436,0.2445,0.247,0.2483,0.233,0.2329,0.2329,0.2328,0,0.1917,0.1947,0.1962,0.1997,0.2026,0.2056,0.2094,0.2143,0.219,0.2218,0.2297,0.232,0.2365,0.238,0.2376,0.2454,0.2446,0.2431,0.2397,0.2463,0.2485,0.2498,0.2335,0.2333,0.2332,0.2331,0,0,0.1907,0.1957,0.1968,0.1992,0.2049,0.2068,0.2132,0.2187,0.224,0.23,0.2367,0.2419,0.245,0.2463,0.2475,0.2516,0.2605,0.2512,0.2513,0.2535,0.2709,0.2525,0.2521,0.2616,0.2618,0.262,0.2696,0,0.1911,0.1948,0.1976,0.2026,0.2048,0.2105,0.2158,0.2223,0.2284,0.2361,0.2414,0.2484,0.2476,0.2519,0.2561,0.2602,0.2641,0.2586,0.2645,0.2646,0.2472,0.253,0.2628,0.2705,0.2708,0.271,0.2711,0,0.1899,0.1931,0.1975,0.2043,0.2061,0.2105,0.2201,0.2253,0.2362,0.2418,0.2497,0.2545,0.2633,0.2615,0.2714,0.2685,0.2708,0.2725,0.2728,0.2541,0.2485,0.2626,0.2733,0.2731,0.273,0.2728,0.2727,0,0.1861,0.1927,0.1965,0.1987,0.207,0.2119,0.2178,0.2281,0.2337,0.2471,0.2533,0.2629,0.2703,0.2752,0.2799,0.2777,0.2894,0.286,0.2709,0.2697,0.2811,0.2799,0.2924,0.2924,0.2924,0.2924,0.2924,0,0.1826,0.1863,0.196,0.1977,0.204,0.2116,0.2197,0.2271,0.2389,0.2455,0.257,0.2628,0.2748,0.2821,0.2839,0.281,0.2929,0.2723,0.2706,0.2835,0.2825,0.2819,0.2806,0.2927,0.2926,0.2926,0.2925,0,0.1763,0.1825,0.1873,0.1979,0.2018,0.2069,0.2194,0.2243,0.2379,0.2472,0.2526,0.267,0.2757,0.2839,0.2929,0.2843,0.2845,0.2804,0.2948,0.2936,0.2605,0.2594,0.263,0.2624,0.2619,0.2615,0.2611,0,0.1724,0.1746,0.1861,0.1893,0.1944,0.2035,0.2087,0.2224,0.2271,0.2462,0.2487,0.2639,0.2714,0.2692,0.279,0.2806,0.277,0.2745,0.2654,0.2596,0.2577,0.2574,0.257,0.2604,0.2602,0.2601,0.26,0,0.1651,0.1711,0.1752,0.1821,0.1881,0.1931,0.2021,0.204,0.2193,0.2342,0.2388,0.2433,0.2524,0.2575,0.2616,0.2618,0.2744,0.2693,0.2702,0.2616,0.2565,0.255,0.2552,0.2583,0.2585,0.2587,0.2588,0,0.1604,0.1614,0.168,0.1721,0.1791,0.1799,0.1861,0.1911,0.1976,0.2177,0.219,0.2349,0.2498,0.2479,0.2514,0.2506,0.2454,0.2352,0.2378,0.2398,0.2284,0.2183,0.2073,0,0,0,0,0,0.1544,0.1537,0.1571,0.1593,0.1655,0.1698,0.1797,0.1862,0.2011,0.1984,0.2078,0.2148,0.2196,0.2276,0.2221,0.2409,0.2467,0.2331,0.2364,0.2488,0.2508,0.2394,0,0,0,0,0,0,0.15,0.1531,0.1528,0.1478,0.1476,0.1521,0.1582,0.1684,0.1672,0.184,0.188,0.2009,0.2093,0.2213,0.218,0.2203,0.2174,0.2431,0.2425,0.2477,0.2495,0.2511,0.2401,0,0,0,0,0]},{"header":{"parameterUnit":"m.s-1","parameterCategory":2,"la1":30.2991,"la2":30.254,"lo1":-89.0895,"lo2":-89.0444,"dy":0.0017,"dx":0.0017,"nx":28,"ny":28,"refTime":"2024-05-24T03:00:00:Z","depth":"4","parameterNumber":3,"parameterNumberName":"V-component_of_CURRENTS"},"data":[0,0,0,0,0,0,0,0,0,0,0,0,0,0,0,0,0,0,0,0,0,0,0,0,0,0,0,0,0,0,0,0,0,0,0,0,0,0,0,0,0,0,0,0,0,0,0,0,0,0,0,0,0,0,0,0,0,0,0.0113,0.0113,0,0.0093,0.0093,0.0092,0.0079,0.0079,0.0079,0.0079,0.005,0.0049,0.0048,0,0,0,0,0,0,0,0,0,0,0,0,0,0.0111,0.0111,0.0113,0.0113,0.0112,0.0093,0.0093,0.0092,0.0079,0.0079,0.0079,0.0079,0.005,0.0049,0.0048,0,0,0,0,0,0,0,0,0,0,0,0,0,0.0103,0.0111,0.0113,0.0104,0.0103,0.0093,0.0093,0.0092,0.0079,0.0079,0.0079,0.0079,0.005,0.0049,0.0048,0.0042,0,0,0.0045,0.0044,0,0,0,0,0,0,0,0,0.0103,0.0103,0.0106,0.0105,0.0104,0.0089,0.0081,0.0075,0.0079,0.0088,0.0079,0.0079,0.0062,0.006,0.0056,0.0041,0.0039,0.0044,0.0044,0.0043,0.0043,0,0,0,0,0,0,0,0.0104,0.0103,0.0104,0.0105,0.0104,0.0091,0.009,0.008,0.0075,0.0087,0.0086,0.0085,0.0062,0.0057,0.0055,0.0039,0.0045,0.0043,0.0043,0.0042,0.003,0.003,0,0,0,0,0,0,0.0109,0.0104,0.0105,0.0104,0.0104,0.0092,0.009,0.0093,0.0075,0.0073,0.0085,0.0084,0.0059,0.0056,0.0054,0.0065,0.0043,0.0042,0.0042,0.0029,0.003,0.003,0,0,0,0,0,0,0.0109,0.011,0.0106,0.0104,0.0102,0.0092,0.0095,0.0093,0.0093,0.0074,0.0071,0.0088,0.0059,0.0056,0.0053,0.0063,0.0042,0.0041,0.0029,0.0029,0.003,0.0076,0,0,0,0,0,0,0.0109,0.011,0.0115,0.0104,0.0103,0.0108,0.0095,0.0093,0.0093,0.0092,0.0076,0.0073,0.0059,0.0055,0.0052,0.0062,0.004,0.0028,0.0029,0.003,0.0074,0.0078,0.0081,0,0,0,0,0,0.0109,0.0118,0.0115,0.0115,0.011,0.0109,0.0107,0.0098,0.0093,0.0098,0.0087,0.0073,0.0057,0.0055,0.0051,0.006,0.0028,0.0029,0.003,0.0072,0.0077,0.0081,0,0,0,0,0,0,0.0119,0.0117,0.0114,0.0121,0.0119,0.0107,0.011,0.0103,0.0098,0.0099,0.0079,0.0075,0.0075,0.0062,0.006,0.0058,0.004,0.004,0.0073,0.0078,0.0081,0.0097,0.0039,0,0,0,0,0,0.0124,0.0131,0.0125,0.0132,0.0132,0.0122,0.0121,0.0116,0.0109,0.0107,0.0095,0.0083,0.0074,0.0072,0.006,0.0062,0.0043,0.0064,0.0068,0.0071,0.0081,0.006,0.0063,0.0033,0.0033,0.0033,0,0,0.013,0.013,0.0134,0.0135,0.0132,0.0141,0.0122,0.0125,0.0135,0.0105,0.0113,0.0094,0.0077,0.0078,0.0077,0.007,0.0069,0.0072,0.0075,0.0084,0.0061,0.0064,0.0066,0.0033,0.0033,0.0033,0,0,0.0148,0.0146,0.016,0.016,0.0161,0.0157,0.0161,0.0153,0.0152,0.0155,0.0136,0.0127,0.0113,0.0105,0.0098,0.0115,0.0087,0.0109,0.0144,0.0123,0.0125,0.0127,0.0103,0.0102,0.0113,0.0114,0.0114,0,0.0156,0.0173,0.0163,0.0176,0.0184,0.0168,0.0188,0.0183,0.0176,0.0181,0.0165,0.0147,0.0128,0.0134,0.0139,0.0124,0.0106,0.013,0.0128,0.013,0.0131,0.0106,0.0104,0.0116,0.0116,0.0115,0.0115,0,0.0183,0.0198,0.0207,0.0222,0.0228,0.024,0.0237,0.0242,0.0236,0.023,0.023,0.02,0.0193,0.0181,0.0166,0.0169,0.015,0.0133,0.0119,0.0137,0.0109,0.0107,0.0119,0.0118,0.0118,0.0117,0,0,0.0203,0.0223,0.0228,0.0249,0.0254,0.0267,0.0283,0.0298,0.0318,0.0294,0.0314,0.0285,0.0265,0.0256,0.023,0.0211,0.0197,0.0181,0.0179,0.0161,0.0148,0.0129,0.0124,0.0178,0.0179,0.0179,0.0124,0,0.0231,0.0269,0.0271,0.0314,0.0336,0.0333,0.0354,0.0363,0.0362,0.0374,0.0339,0.0345,0.0295,0.0298,0.0267,0.022,0.0194,0.0213,0.0131,0.0128,0.0112,0.0122,0.0179,0.0122,0.0121,0.0121,0.0121,0,0.0261,0.0284,0.0331,0.0373,0.0383,0.0407,0.0447,0.0467,0.0472,0.0468,0.0456,0.0429,0.0404,0.0358,0.0276,0.0291,0.0226,0.0179,0.0175,0.0143,0.0106,0.01,0.0116,0.0117,0.0117,0.0117,0.0118,0,0.0289,0.0331,0.0375,0.0387,0.0425,0.0453,0.0479,0.0497,0.0532,0.0537,0.0555,0.0505,0.0498,0.0408,0.0303,0.0294,0.0207,0.0179,0.0097,0.0094,0.0107,0.0106,0.0119,0.0119,0.0119,0.0119,0.0119,0,0.0318,0.0355,0.0395,0.0419,0.0484,0.0497,0.0565,0.058,0.0613,0.0666,0.0613,0.0629,0.0512,0.0446,0.0332,0.021,0.0224,0.0108,0.0082,0.0127,0.0128,0.0105,0.0104,0.0117,0.0117,0.0118,0.0118,0,0.034,0.0364,0.0421,0.0474,0.0501,0.0551,0.0633,0.0678,0.07,0.0768,0.0779,0.0732,0.0647,0.0514,0.0374,0.0262,0.014,0.0089,0.0152,0.0129,0.0032,0.0034,-0.0002,-0.0003,-0.0004,-0.0005,-0.0006,0,0.0354,0.0385,0.0466,0.0511,0.0541,0.0617,0.0673,0.0721,0.0773,0.083,0.0862,0.0811,0.0758,0.0547,0.039,0.0172,0.0131,0.0056,0.0037,0.0043,0.0021,0.0025,0.0028,-0.0007,-0.0007,-0.0008,-0.0008,0,0.038,0.0411,0.0459,0.0552,0.0622,0.0707,0.079,0.0835,0.0902,0.0923,0.094,0.0842,0.0743,0.0561,0.0393,0.0231,0.0099,0.0046,0.0047,0.0027,0.0037,0.0017,0.0021,-0.0011,-0.001,-0.001,-0.001,0,0.0403,0.0439,0.0507,0.0591,0.0683,0.0774,0.0816,0.0882,0.0938,0.0993,0.0995,0.089,0.0832,0.0592,0.0436,0.0277,0.0225,0.0151,0.0145,0.0146,0.0194,0.0229,0.0225,0,0,0,0,0,0.0421,0.0464,0.0541,0.0634,0.0725,0.0785,0.0886,0.092,0.0983,0.1005,0.1006,0.0915,0.0704,0.0608,0.0448,0.0394,0.018,0.0196,0.0088,-0.0028,-0.0025,0.0004,0,0,0,0,0,0,0.0432,0.0501,0.0539,0.0657,0.0725,0.0834,0.0903,0.0947,0.0955,0.0991,0.0881,0.0849,0.0638,0.08,0.0438,0.0391,0.0292,0.0104,0.0099,-0.003,-0.0027,-0.0024,0.0007,0,0,0,0,0]}]]